Terminal Aerodrome Forecast
Issued by NWS Denver/Boulder, CO

Home | Current Version | Previous Version | Text Only | Print | Product List | Glossary On
Versions: 1 2 3 4 5 6 7 8 9 10 11 12 13 14 15 16 17 18 19 20 21 22 23 24 25 26 27 28 29 30 31 32 33 34 35 36 37 38 39 40 41 42 43 44 45 46 47 48 49 50
000
FTUS45 KBOU 151912 AAA
TAFDEN
TAF AMD
KDEN 151912Z 1519/1624 33011KT P6SM SCT080 SCT120 BKN220
     FM152200 08006KT P6SM SCT080 BKN220
     FM152300 13007KT P6SM FEW100 SCT200
     FM160300 20007KT P6SM FEW220
     FM161000 21007KT P6SM BKN220
     FM161400 VRB05KT P6SM BKN200
     FM161900 03006KT P6SM SCT100 BKN150=

USA.gov is the U.S. government's official web portal to all federal, state and local government web resources and services.